Regional Weather Roundup
Issued by NWS Upton, NY

Current Version | Previous Version | Text Only | Print | Product List | Glossary Off
Versions: 1 2 3 4 5 6 7 8 9 10 11 12 13 14 15 16 17 18 19 20 21 22 23 24 25 26 27 28 29 30 31 32 33 34 35 36 37 38 39 40 41 42 43 44 45 46 47 48 49 50
000 ASUS41 KOKX 300918 RWROKX REGIONAL WEATHER ROUNDUP NATIONAL WEATHER SERVICE NEW YORK NY 500 AM EDT SAT MAY 30 2015 NOTE: "FAIR" INDICATES FEW OR NO CLOUDS BELOW 12,000 FEET WITH NO SIGNIFICANT WEATHER AND/OR OBSTRUCTIONS TO VISIBILITY. NYZ071-072-176-178-NJZ106-104-301000- NEW YORK CITY METRO AREA CITY SKY/WX TMP DP RH WIND PRES REMARKS CENTRAL PARK CLEAR 68 62 81 VRB3 30.22S LAGUARDIA APRT CLEAR 67 61 81 S7 30.19S KENNEDY INTL PTCLDY 63 60 90 S3 30.22R NEWARK/LIBERTY MOCLDY 67 63 87 S5 30.20R BRNX BOT. GARD N/A N/A N/A N/A E2 30.21S TETERBORO CLEAR 66 61 84 S3 30.18S $$ NYZ177-179-078>081-301000- LONG ISLAND NEW YORK CITY SKY/WX TMP DP RH WIND PRES REMARKS FARMINGDALE MOCLDY 63 62 97 SW3 30.21S ISLIP CLEAR 64 61 90 SW8 30.20R SHIRLEY CLOUDY 62 60 93 S6 30.22R FOG WESTHAMPTON FOG 60 60 100 S3 30.23R VSB 1/4 MONTAUK POINT N/A 59 58 96 VRB3 30.23S $$ NYZ052-065-067-301000- HUDSON VALLEY CITY SKY/WX TMP DP RH WIND PRES REMARKS WHITE PLAINS CLEAR 60 58 92 CALM 30.20R FOG NEWBURGH MOCLDY 66 63 88 CALM 30.19F MONTGOMERY MOCLDY 62 59 90 CALM 30.18S POUGHKEEPSIE CLOUDY 64 59 83 CALM 30.17F ALBANY PTCLDY 67 56 67 S9 30.14S $$ NJZ001-105-106-008-010-013-015-019>022-104-301000- NEW JERSEY CITY SKY/WX TMP DP RH WIND PRES REMARKS NEWARK/LIBERTY MOCLDY 67 63 87 S5 30.20R TETERBORO CLEAR 66 61 84 S3 30.18S CALDWELL CLEAR 62 58 86 CALM 30.20S MORRISTOWN CLEAR 59 55 88 CALM 30.20S SOMERVILLE CLEAR 60 56 86 NW3 30.18S SUSSEX MOCLDY 61 57 87 CALM 30.20S ANDOVER N/A 65 61 87 CALM 30.20R TRENTON CLEAR 65 63 93 S6 30.19S MILLVILLE CLOUDY 65 64 97 CALM 30.21S FOG ATLANTIC CITY CLOUDY 67 65 93 S7 30.21S WRIGHTSTOWN PTCLDY 63 63 100 S5 30.18S TOMS RIVER MOCLDY N/A N/A N/A SE3 30.21S BELMAR CLEAR 63 57 82 CALM 30.21S $$ PAZ047>061-062-071-301000- EASTERN PENNSYLVANIA CITY SKY/WX TMP DP RH WIND PRES REMARKS PHILADELPHIA PTCLDY 69 65 86 S5 30.20S ALLENTOWN PTCLDY 69 63 81 S7 30.18R SCRANTON PTCLDY 68 63 84 CALM 30.16S $$ CTZ002-004>006-009-010-012-RIZ004-006-007-MAZ004-011-015-301000- SOUTHERN NEW ENGLAND IN CT CITY SKY/WX TMP DP RH WIND PRES REMARKS BRADLEY INTL PTCLDY 60 57 89 S6 30.19R HARTFORD CLEAR 60 58 92 S6 30.20R DANBURY CLEAR 59 56 89 CALM 30.21S WTRBRY/OXFORD CLOUDY 61 54 77 CALM 30.23R VSB 1 BRIDGEPORT CLEAR 63 61 93 CALM 30.20S MERIDEN FOG 60 58 92 CALM 30.21R VSB 1/2 NEW HAVEN FOG 59 59 100 CALM 30.21R VSB 1/2 CHESTER FOG 57 57 100 CALM 30.22S VSB<1/4 GROTON FOG 58 56 93 CALM 30.21S VSB 1/4 WILLIMANTIC FOG 56 55 97 S3 30.22R VSB 1/2 IN RI CITY SKY/WX TMP DP RH WIND PRES REMARKS PROVIDENCE FOG 57 56 96 SW7 30.22S VSB 1/2 BLOCK ISLAND CLOUDY 57 54 88 SW9 30.23S WESTERLY FOG 57 56 96 CALM 30.22S VSB 1/4 IN MA CITY SKY/WX TMP DP RH WIND PRES REMARKS BOSTON CLEAR 59 56 89 CALM 30.19S WORCESTER CLEAR 59 54 83 W9 30.20S WESTFIELD CLEAR 59 56 89 SW3 30.19R PROVINCETOWN CLOUDY 61 57 88 SW10 30.21F VSB 1/2 NANTUCKET CLOUDY 62 60 93 SW8 30.23S FOG $$ ANZ330-335-338-340-345-350-353-355-301000- COASTAL MARINE OBSERVATIONS STATION/POSITION TIME SKY/WX TEMP WIND PRES VSBY WAVE AIR SEA DIR/SP/G HT/PER (UTC) (F) (DEG/KT/KT) (MB) (MI) (FT/S) NY HARB ENTRANCE 0850 63 62 180/ 10/ 12 1022.3 2/ 9 4S FIRE IS 0803 60 N/A 2/ 8 20S FIRE ISLAND 0850 61 59 250/ 4/ 4 1023.1 2/ 8 GREAT SOUTH BAY 0815 64 69 240/ 6/ 8 N/A 23SW MTP 0850 58 56 220/ 2/ 4 1023.2 2/ 8 HUDSON CANYON NOT AVBL KINGS POINT 0800 64 61 180/ 2/ 2 1021.9 CENTRAL LI SOUND 0830 58 59 150/ 2/ 4 N/A EASTERN LI SOUND 0800 55 130/ 4/ 6 N/A ROBBINS REEF 0800 63 160/ 4/ 5 1021.4 $$ >>>>>>>>>>>>>>>>>>>>>>>>>>>> KEY <<<<<<<<<<<<<<<<<<<<<<<<<<< > < > SKY/WX - SKY CONDITION/PRESENT WEATHER < > TMP - TEMPERATURE IN FAHRENHEIT < > DP - DEWPOINT IN FAHRENHEIT < > RH - RELATIVE HUMIDITY IN PERCENT < > WIND - DIRECTION AND SPEED IN MPH < > PRES - MEAN SEA LEVEL PRESSURE IN INCHES OF HG < > WCI - WIND CHILL INDEX < > VSB - VISIBILITY IN MILES < > HX - HEAT INDEX < > TC - TEMPERATURE IN CELSIUS < > VRB - VARIABLE WIND DIRECTION < > < >>>>>>>>>>>>>>>>>>>>>>>>>>>> KEY <<<<<<<<<<<<<<<<<<<<<<<<<<<

USA.gov is the U.S. government's official web portal to all federal, state and local government web resources and services.